Total_Precipitation_Accumulation
0.18 0.25 0.28 0.32 0.28 0.21 0.18 0.17 0.30 0.38 0.54 0.67 0.67 0.77 1.02 0.87 0.76 0.68 0.67 0.58 0.55 0.64 0.80 0.91 0.93 0.93 1.02 1.16 1.30 1.44 1.57 1.71 1.96 2.24 2.10 1.85 1.79 1.74 1.69 1.77 1.91 2.22 2.37 2.46
0.16 0.22 0.26 0.28 0.29 0.24 0.20 0.18 0.18 0.30 0.49 0.58 0.69 0.74 0.82 0.83 0.86 0.84 0.77 0.75 0.75 0.91 0.95 1.00 1.07 1.02 0.98 1.03 1.13 1.34 1.49 1.62 1.80 1.92 1.76 1.59 1.47 1.50 1.54 1.64 1.82 2.00 2.13 2.25
0.29 0.25 0.29 0.34 0.30 0.28 0.24 0.29 0.28 0.37 0.49 0.55 0.77 0.75 0.75 0.91 0.99 0.92 0.76 0.81 0.86 0.92 1.07 1.02 1.01 1.00 1.01 1.08 1.27 1.46 1.51 1.54 1.67 1.77 1.75 1.65 1.48 1.50 1.57 1.67 1.79 1.87 1.91 1.96
0.45 0.47 0.56 0.43 0.38 0.35 0.32 0.37 0.38 0.42 0.49 0.60 0.78 0.78 0.67 0.72 0.77 0.85 0.88 0.96 0.94 0.94 1.00 0.95 0.91 1.01 1.04 1.04 1.28 1.51 1.55 1.59 1.74 1.90 1.90 1.85 1.79 1.76 1.86 1.92 1.90 1.90 1.93 1.94
0.65 0.63 0.55 0.53 0.52 0.53 0.60 0.76 0.68 0.60 0.57 0.63 0.64 0.73 0.81 0.70 0.64 0.76 0.87 1.07 1.12 1.03 1.09 1.13 1.17 1.23 1.25 1.22 1.40 1.62 1.72 1.77 1.85 2.00 2.06 2.09 2.17 2.21 2.26 2.24 2.11 2.08 2.15 2.18
0.73 0.81 0.80 0.76 0.65 0.60 0.78 1.25 1.11 0.87 0.74 0.70 0.71 1.04 1.19 1.00 0.83 0.85 0.86 1.05 1.26 1.23 1.08 1.14 1.19 1.30 1.49 1.56 1.66 1.75 1.90 2.04 2.07 2.21 2.33 2.29 2.39 2.52 2.64 2.68 2.58 2.60 2.46 2.30
0.80 0.90 0.96 0.88 0.67 0.71 1.31 1.67 1.31 1.10 1.03 0.94 1.01 1.05 1.11 0.99 0.91 0.92 0.90 0.99 1.14 1.35 1.23 1.18 1.28 1.44 1.65 1.78 1.95 2.02 2.11 2.18 2.21 2.36 2.51 2.63 2.83 3.02 3.04 2.98 2.99 2.89 2.61 2.48
1.00 1.23 1.31 0.88 0.85 1.18 1.49 1.30 1.31 1.35 1.45 1.39 1.17 0.95 0.96 1.02 0.92 0.90 0.90 0.94 0.97 1.06 1.18 1.26 1.36 1.64 1.82 1.85 1.92 2.06 2.18 2.29 2.43 2.53 2.54 2.66 3.02 3.16 3.16 3.13 2.99 2.82 2.67 2.46
1.24 1.43 1.20 0.99 1.11 1.17 1.29 1.36 1.40 1.47 1.53 1.38 1.17 1.03 1.03 1.06 0.96 0.88 0.85 0.92 0.96 1.00 1.12 1.30 1.49 1.74 2.03 2.12 2.06 2.03 2.15 2.31 2.48 2.62 2.82 3.01 3.17 3.15 3.08 3.05 2.93 2.77 2.64 2.42
1.44 1.45 1.18 1.15 1.21 1.17 1.25 1.31 1.42 1.37 1.32 1.29 1.23 1.08 1.06 1.01 0.88 0.84 0.87 0.91 0.95 1.04 1.15 1.35 1.57 1.78 2.07 2.05 1.97 2.02 2.05 2.17 2.29 2.37 2.45 2.60 2.85 2.82 2.69 2.66 2.72 2.71 2.67 2.54
1.67 1.67 1.57 1.52 1.47 1.37 1.28 1.25 1.26 1.30 1.24 1.27 1.28 1.24 1.07 1.03 0.97 0.86 0.88 0.93 1.00 1.13 1.33 1.44 1.60 1.73 1.78 1.77 1.80 1.83 1.85 1.92 1.95 2.00 2.08 2.18 2.28 2.40 2.39 2.40 2.39 2.41 2.40 2.37
1.97 1.79 1.73 1.93 1.77 1.60 1.40 1.32 1.35 1.34 1.28 1.30 1.33 1.37 1.19 1.09 1.07 0.97 0.94 0.99 1.14 1.26 1.36 1.49 1.72 1.90 1.89 1.84 1.90 1.94 1.87 1.83 1.81 1.85 1.90 1.92 2.01 2.06 2.09 1.99 1.88 1.79 1.74 1.72
1.76 1.65 1.62 1.69 1.67 1.55 1.42 1.41 1.52 1.56 1.47 1.35 1.34 1.35 1.24 1.12 1.11 1.07 1.04 1.09 1.22 1.25 1.29 1.44 1.59 1.71 1.84 2.01 2.12 2.16 2.08 1.97 1.89 1.81 1.82 1.84 1.86 1.94 1.96 1.88 1.72 1.55 1.44 1.37
1.79 1.74 1.74 1.64 1.60 1.49 1.38 1.42 1.52 1.48 1.49 1.39 1.36 1.34 1.25 1.13 1.14 1.20 1.17 1.21 1.31 1.35 1.38 1.48 1.57 1.65 1.73 1.98 2.19 2.25 2.19 2.08 1.92 1.80 1.75 1.74 1.77 1.81 1.90 1.99 1.91 1.72 1.49 1.30
2.12 2.00 1.87 1.83 1.77 1.64 1.44 1.41 1.45 1.42 1.34 1.35 1.39 1.44 1.38 1.32 1.29 1.29 1.25 1.21 1.33 1.41 1.47 1.53 1.58 1.60 1.72 1.88 2.02 2.05 2.00 1.89 1.75 1.70 1.71 1.71 1.77 1.78 1.75 1.80 1.79 1.75 1.58 1.38
2.09 1.97 1.82 1.82 1.81 1.77 1.65 1.56 1.54 1.53 1.44 1.36 1.39 1.41 1.44 1.47 1.39 1.33 1.27 1.26 1.37 1.39 1.38 1.50 1.61 1.60 1.69 1.89 1.97 1.97 1.96 1.93 1.76 1.68 1.76 1.81 1.80 1.81 1.78 1.85 1.83 1.77 1.59 1.38
1.97 1.96 1.81 1.65 1.64 1.68 1.61 1.54 1.50 1.52 1.49 1.44 1.37 1.30 1.27 1.28 1.37 1.37 1.29 1.21 1.27 1.38 1.40 1.51 1.58 1.58 1.69 1.87 2.04 2.00 1.93 1.89 1.78 1.67 1.70 1.82 1.87 1.85 1.81 1.83 1.79 1.78 1.64 1.45
1.65 1.70 1.67 1.58 1.46 1.44 1.45 1.42 1.46 1.48 1.49 1.45 1.38 1.33 1.33 1.37 1.52 1.61 1.59 1.45 1.44 1.44 1.41 1.44 1.48 1.53 1.62 1.74 1.80 1.80 1.83 1.78 1.65 1.49 1.52 1.62 1.69 1.73 1.77 1.73 1.74 1.74 1.68 1.53
1.44 1.59 1.62 1.54 1.51 1.37 1.43 1.42 1.43 1.45 1.43 1.47 1.47 1.43 1.39 1.46 1.58 1.70 1.75 1.71 1.67 1.59 1.49 1.41 1.49 1.48 1.58 1.69 1.70 1.70 1.68 1.62 1.50 1.34 1.34 1.48 1.54 1.60 1.66 1.63 1.61 1.59 1.53 1.44
1.60 1.65 1.60 1.49 1.55 1.59 1.55 1.54 1.53 1.54 1.43 1.37 1.41 1.49 1.57 1.60 1.68 1.75 1.77 1.73 1.64 1.58 1.49 1.39 1.31 1.30 1.38 1.52 1.64 1.62 1.59 1.56 1.51 1.34 1.32 1.47 1.56 1.65 1.62 1.57 1.58 1.57 1.48 1.45
1.61 1.57 1.48 1.37 1.39 1.42 1.36 1.37 1.40 1.51 1.57 1.50 1.56 1.66 1.73 1.70 1.73 1.86 1.98 1.85 1.58 1.53 1.48 1.45 1.35 1.34 1.33 1.46 1.56 1.55 1.55 1.55 1.60 1.49 1.44 1.48 1.54 1.60 1.56 1.51 1.49 1.47 1.47 1.51
1.56 1.54 1.53 1.50 1.46 1.36 1.22 1.21 1.30 1.40 1.53 1.62 1.68 1.76 1.81 1.84 1.86 1.86 1.80 1.84 1.72 1.73 1.62 1.49 1.43 1.42 1.41 1.42 1.43 1.49 1.50 1.53 1.65 1.61 1.54 1.55 1.63 1.67 1.67 1.61 1.56 1.51 1.50 1.51
1.53 1.56 1.52 1.52 1.55 1.48 1.34 1.29 1.27 1.36 1.46 1.50 1.58 1.77 1.86 1.84 1.92 2.09 1.90 1.59 1.51 1.59 1.59 1.57 1.54 1.46 1.36 1.23 1.32 1.45 1.49 1.52 1.56 1.53 1.44 1.41 1.43 1.48 1.48 1.40 1.38 1.39 1.39 1.38
1.63 1.58 1.55 1.55 1.55 1.47 1.42 1.40 1.39 1.41 1.36 1.32 1.40 1.59 1.81 1.91 1.84 1.74 1.74 1.65 1.48 1.39 1.32 1.37 1.38 1.33 1.33 1.27 1.34 1.43 1.46 1.50 1.49 1.41 1.35 1.33 1.35 1.37 1.35 1.32 1.31 1.31 1.34 1.38
1.65 1.58 1.51 1.51 1.56 1.54 1.47 1.47 1.54 1.50 1.40 1.36 1.33 1.37 1.50 1.68 1.78 1.64 1.45 1.38 1.32 1.19 1.12 1.14 1.12 1.15 1.16 1.17 1.20 1.30 1.46 1.57 1.55 1.40 1.28 1.29 1.29 1.28 1.23 1.20 1.24 1.33 1.38 1.39
1.66 1.63 1.58 1.53 1.47 1.48 1.47 1.53 1.68 1.67 1.66 1.70 1.58 1.46 1.49 1.50 1.51 1.56 1.46 1.31 1.22 1.12 1.01 1.05 1.04 1.03 1.04 1.12 1.15 1.18 1.30 1.48 1.54 1.45 1.30 1.30 1.28 1.27 1.27 1.26 1.21 1.23 1.28 1.29
1.72 1.66 1.60 1.56 1.51 1.41 1.47 1.59 1.71 1.76 1.81 1.89 1.89 1.74 1.62 1.48 1.46 1.47 1.45 1.40 1.28 1.15 1.10 1.07 1.03 1.02 1.03 1.05 1.01 0.99 1.09 1.24 1.31 1.35 1.39 1.40 1.41 1.41 1.37 1.31 1.22 1.16 1.17 1.18